Starlink 36373

operational
NORAD ID: 68039 Int'l Des: 2026-040 Owner: SPXS Country: US Constellation: starlink
LEOCIRCULARRETROGRADE

关于 Starlink 36373

正在加载描述...

实时位置

正在加载3D地球...

即将过境

高度历史

Altitude vs Time

uPlot chart will show altitude changes over time

两行轨道根数

1 68039C 26040AA 26061.10465278 .00615940 00000+0 66614-3 0 616
2 68039 97.2857 8.4879 0010249 255.8024 210.1368 16.09205952 15
Epoch: Mar 2, 2026 • Age: 30 hours

当前状态

高度 251.7 km
速度 7.75 km/s
星下点 -14.58°S, 115.27°E
发射日期 Mar 1, 2026
运行时间 1 days
类型 internet

技术详情

分类 Payload
质量 575.00 kg
干质量 530.00 kg
总质量 575.00 kg
长度 0.30 m
直径 4.10 m
跨度 29.00 m
形状 Box + pan
制造商 SPXS
平台类型 Starlink V2MO
阶段状态 In Orbit
所有者/国家 SPXS/US

大型星座

Loading constellations...